Regional Weather Roundup
Issued by NWS

Home | Current Version | Previous Version | Text Only | Print | Product List | Glossary On
Versions: 1 2 3 4 5 6 7 8 9 10 11 12 13 14 15 16 17 18 19 20 21 22 23 24 25 26 27 28 29 30 31 32 33 34 35 36 37 38 39 40 41 42 43 44 45 46 47 48 49 50
000
ASUS43 KLMK 241402
RWRKY
KENTUCKY REGIONAL WEATHER ROUNDUP
NATIONAL WEATHER SERVICE LOUISVILLE KY
1000 AM EDT FRI OCT 24 2014

NOTE "FAIR" INDICATES FEW OR NO CLOUDS BELOW 12,000 FEET
WITH NO SIGNIFICANT WEATHER AND/OR OBSTRUCTIONS TO VISIBILITY.

KYZ001>023-026-027-061>063-070>075-241500-
WESTERN AND SOUTH CENTRAL KENTUCKY

CITY           SKY/WX    TMP DP  RH WIND       PRES   REMARKS
PADUCAH        PTSUNNY   51  48  89 CALM      30.13S
HENDERSON      SUNNY    N/A N/A N/A S3        30.13S
OWENSBORO      CLOUDY    49  46  89 SE3       30.14S
HOPKINSVILLE   SUNNY     51  49  94 W2        30.14S
BOWLING GREEN  PTSUNNY   51  46  83 CALM      30.15R
GLASGOW        NOT AVBL
$$

KYZ024-025-028>034-038-045-046-053-241500-
NORTH CENTRAL KENTUCKY

CITY           SKY/WX    TMP DP  RH WIND       PRES   REMARKS
LOUISVILLE/SDF PTSUNNY   47  43  86 SW8       30.15R
LOUISVILLE/LOU SUNNY     47  43  86 CALM      30.15R
FORT KNOX      CLOUDY    49  45  83 S1        30.13R
$$

KYZ035>037-039>044-047>052-055>060-089>105-241500-
NORTHEAST KENTUCKY

CITY           SKY/WX    TMP DP  RH WIND       PRES   REMARKS
LEXINGTON      MOSUNNY   48  44  86 CALM      30.14R FOG
COVINGTON      MOSUNNY   50  45  83 CALM      30.13S
FRANKFORT      MOSUNNY   44  41  89 CALM      30.14R
$$

KYZ054-064>069-076>088-106>120-241500-
SOUTHEAST KENTUCKY

CITY           SKY/WX    TMP DP  RH WIND       PRES   REMARKS
JACKSON        CLOUDY    45  42  89 CALM      30.14S
LONDON         CLOUDY    47  43  86 CALM      30.13S
SOMERSET       PTSUNNY   45  45 100 CALM      30.14F
MIDDLESBORO    CLOUDY    43  43 100 CALM      30.15F FOG
MONTICELLO     SUNNY     49  45  86 CALM      30.15S
$$




USA.gov is the U.S. government's official web portal to all federal, state and local government web resources and services.